Time,TemperatureF,DewpointF,PressureIn,WindDirection,WindDirectionDegrees,WindSpeedMPH,WindSpeedGustMPH,Humidity,HourlyPrecipIn,Conditions,Clouds,dailyrainin,SoftwareType,DateUTC
2013-05-12 00:01:00,66.0,61.4,29.86,WNW,294,0.0,3.0,85,0.00,,---,0.00,VWS V14.01,2013-05-12 04:01:00,
2013-05-12 00:06:00,65.9,61.3,29.86,West,280,0.0,2.0,85,0.00,,---,0.00,VWS V14.01,2013-05-12 04:06:00,
2013-05-12 00:12:00,65.9,61.3,29.86,WNW,290,5.0,6.0,85,0.00,,---,0.00,VWS V14.01,2013-05-12 04:12:00,
2013-05-12 00:17:00,65.9,61.3,29.86,WSW,249,2.0,4.0,85,0.00,,---,0.00,VWS V14.01,2013-05-12 04:17:00,
2013-05-12 00:22:00,65.8,61.2,29.86,West,262,1.0,2.0,85,0.00,,---,0.00,VWS V14.01,2013-05-12 04:22:00,
2013-05-12 00:27:00,65.8,61.2,29.86,WNW,283,1.0,1.0,85,0.00,,---,0.00,VWS V14.01,2013-05-12 04:27:00,
2013-05-12 00:32:00,65.7,61.1,29.86,WNW,288,3.0,4.0,85,0.00,,---,0.00,VWS V14.01,2013-05-12 04:32:00,
2013-05-12 00:37:00,65.8,61.5,29.86,SW,235,1.0,5.0,86,0.00,,---,0.00,VWS V14.01,2013-05-12 04:37:00,
2013-05-12 00:42:00,65.8,61.5,29.86,WNW,294,0.0,2.0,86,0.00,,---,0.00,VWS V14.01,2013-05-12 04:42:00,
2013-05-12 00:47:00,65.7,61.4,29.86,West,262,3.0,4.0,86,0.00,,---,0.00,VWS V14.01,2013-05-12 04:47:00,
2013-05-12 00:52:00,65.7,61.4,29.86,SW,232,0.0,3.0,86,0.00,,---,0.00,VWS V14.01,2013-05-12 04:52:00,
2013-05-12 00:57:00,65.6,61.6,29.86,WSW,243,4.0,6.0,87,0.00,,---,0.00,VWS V14.01,2013-05-12 04:57:00,
2013-05-12 01:02:00,65.5,61.5,29.86,WSW,243,3.0,7.0,87,0.00,,---,0.00,VWS V14.01,2013-05-12 05:02:00,
2013-05-12 01:07:00,65.4,61.4,29.86,SW,226,0.0,3.0,87,0.00,,---,0.00,VWS V14.01,2013-05-12 05:07:00,
2013-05-12 01:12:00,65.2,61.6,29.86,WSW,249,2.0,2.0,88,0.00,,---,0.00,VWS V14.01,2013-05-12 05:12:00,
2013-05-12 01:17:00,65.1,61.5,29.85,WSW,257,2.0,4.0,88,0.00,,---,0.00,VWS V14.01,2013-05-12 05:17:00,
2013-05-12 01:22:00,65.1,61.1,29.85,SW,228,2.0,4.0,87,0.00,,---,0.00,VWS V14.01,2013-05-12 05:22:00,
2013-05-12 01:27:00,65.0,61.4,29.85,WNW,290,2.0,3.0,88,0.00,,---,0.00,VWS V14.01,2013-05-12 05:27:00,
2013-05-12 01:32:00,65.0,61.4,29.85,WNW,284,1.0,3.0,88,0.00,,---,0.00,VWS V14.01,2013-05-12 05:32:00,
2013-05-12 01:37:00,64.9,61.3,29.86,WNW,298,0.0,1.0,88,0.00,,---,0.00,VWS V14.01,2013-05-12 05:37:00,
2013-05-12 01:42:00,64.9,61.3,29.85,SW,236,1.0,2.0,88,0.00,,---,0.00,VWS V14.01,2013-05-12 05:42:00,
2013-05-12 01:47:00,64.9,61.3,29.86,WSW,245,4.0,6.0,88,0.00,,---,0.00,VWS V14.01,2013-05-12 05:47:00,
2013-05-12 01:52:00,64.7,61.4,29.85,SW,228,3.0,5.0,89,0.00,,---,0.00,VWS V14.01,2013-05-12 05:52:00,
2013-05-12 01:57:00,64.7,61.4,29.85,WSW,239,2.0,8.0,89,0.00,,---,0.00,VWS V14.01,2013-05-12 05:57:00,
2013-05-12 02:02:00,64.6,61.3,29.86,WSW,237,0.0,4.0,89,0.00,,---,0.00,VWS V14.01,2013-05-12 06:02:00,
2013-05-12 02:07:00,64.6,61.3,29.85,SW,219,0.0,12.0,89,0.00,,---,0.00,VWS V14.01,2013-05-12 06:07:00,
2013-05-12 02:12:00,64.6,61.3,29.85,SW,228,2.0,8.0,89,0.00,,---,0.00,VWS V14.01,2013-05-12 06:12:00,
2013-05-12 02:17:00,64.5,61.2,29.85,West,270,3.0,5.0,89,0.00,,---,0.00,VWS V14.01,2013-05-12 06:17:00,
2013-05-12 02:22:00,64.5,61.5,29.85,WSW,245,4.0,7.0,90,0.00,,---,0.00,VWS V14.01,2013-05-12 06:22:00,
2013-05-12 02:27:00,64.4,61.4,29.85,WSW,238,4.0,5.0,90,0.00,,---,0.00,VWS V14.01,2013-05-12 06:27:00,
2013-05-12 02:32:00,64.3,61.3,29.85,West,264,3.0,7.0,90,0.00,,---,0.00,VWS V14.01,2013-05-12 06:32:00,
2013-05-12 02:37:00,64.2,61.2,29.85,West,264,3.0,5.0,90,0.00,,---,0.00,VWS V14.01,2013-05-12 06:37:00,
2013-05-12 02:42:00,64.2,61.5,29.85,West,262,5.0,10.0,91,0.00,,---,0.00,VWS V14.01,2013-05-12 06:42:00,
2013-05-12 02:47:00,64.3,61.6,29.85,West,280,0.0,11.0,91,0.00,,---,0.00,VWS V14.01,2013-05-12 06:47:00,
2013-05-12 02:52:00,64.2,61.5,29.85,WNW,298,0.0,3.0,91,0.00,,---,0.00,VWS V14.01,2013-05-12 06:52:00,
2013-05-12 02:57:00,64.1,61.4,29.85,WSW,249,1.0,5.0,91,0.00,,---,0.00,VWS V14.01,2013-05-12 06:57:00,
2013-05-12 03:02:00,64.0,61.3,29.84,WNW,289,2.0,2.0,91,0.00,,---,0.00,VWS V14.01,2013-05-12 07:02:00,
2013-05-12 03:07:00,63.9,61.2,29.85,WNW,303,2.0,4.0,91,0.00,,---,0.00,VWS V14.01,2013-05-12 07:07:00,
2013-05-12 03:12:00,63.7,61.0,29.85,West,279,3.0,3.0,91,0.00,,---,0.00,VWS V14.01,2013-05-12 07:12:00,
2013-05-12 03:17:00,63.6,60.9,29.84,WSW,258,1.0,3.0,91,0.00,,---,0.00,VWS V14.01,2013-05-12 07:17:00,
2013-05-12 03:23:00,63.5,61.1,29.84,WNW,284,1.0,4.0,92,0.00,,---,0.00,VWS V14.01,2013-05-12 07:23:00,
2013-05-12 03:28:00,63.4,61.0,29.85,WNW,302,1.0,1.0,92,0.00,,---,0.00,VWS V14.01,2013-05-12 07:28:00,
2013-05-12 03:33:00,63.3,60.9,29.85,WNW,289,0.0,3.0,92,0.00,,---,0.00,VWS V14.01,2013-05-12 07:33:00,
2013-05-12 03:38:00,63.3,60.9,29.85,WNW,301,0.0,2.0,92,0.00,,---,0.00,VWS V14.01,2013-05-12 07:38:00,
2013-05-12 03:43:00,63.2,60.8,29.85,WNW,297,0.0,2.0,92,0.00,,---,0.00,VWS V14.01,2013-05-12 07:43:00,
2013-05-12 03:48:00,63.1,60.7,29.85,SW,222,0.0,0.0,92,0.00,,---,0.00,VWS V14.01,2013-05-12 07:48:00,
2013-05-12 03:53:00,63.0,61.0,29.85,NW,310,0.0,1.0,93,0.00,,---,0.00,VWS V14.01,2013-05-12 07:53:00,
2013-05-12 03:58:00,62.8,60.8,29.85,West,266,0.0,1.0,93,0.00,,---,0.00,VWS V14.01,2013-05-12 07:58:00,
2013-05-12 04:03:00,62.7,60.7,29.85,West,281,1.0,2.0,93,0.00,,---,0.00,VWS V14.01,2013-05-12 08:03:00,
2013-05-12 04:08:00,62.6,60.5,29.85,WNW,291,0.0,2.0,93,0.00,,---,0.00,VWS V14.01,2013-05-12 08:08:00,
2013-05-12 04:13:00,62.5,60.5,29.85,WSW,254,1.0,2.0,93,0.00,,---,0.00,VWS V14.01,2013-05-12 08:13:00,
2013-05-12 04:18:00,62.4,60.3,29.85,West,277,0.0,1.0,93,0.00,,---,0.00,VWS V14.01,2013-05-12 08:18:00,
2013-05-12 04:23:00,62.3,60.2,29.84,WNW,287,2.0,2.0,93,0.00,,---,0.00,VWS V14.01,2013-05-12 08:23:00,
2013-05-12 04:28:00,62.2,60.2,29.85,NW,325,1.0,2.0,93,0.00,,---,0.00,VWS V14.01,2013-05-12 08:28:00,
2013-05-12 04:33:00,62.1,60.4,29.85,WNW,300,1.0,3.0,94,0.00,,---,0.00,VWS V14.01,2013-05-12 08:33:00,
2013-05-12 04:38:00,62.0,60.3,29.85,NW,311,1.0,2.0,94,0.00,,---,0.00,VWS V14.01,2013-05-12 08:38:00,
2013-05-12 04:43:00,62.0,60.3,29.85,NW,318,2.0,3.0,94,0.00,,---,0.00,VWS V14.01,2013-05-12 08:43:00,
2013-05-12 04:48:00,62.0,60.3,29.85,WNW,290,1.0,1.0,94,0.00,,---,0.00,VWS V14.01,2013-05-12 08:48:00,
2013-05-12 04:53:00,62.0,60.3,29.85,NW,306,0.0,3.0,94,0.00,,---,0.00,VWS V14.01,2013-05-12 08:53:00,
2013-05-12 04:58:00,61.9,60.2,29.85,NW,306,2.0,3.0,94,0.00,,---,0.00,VWS V14.01,2013-05-12 08:58:00,
2013-05-12 05:03:00,61.9,60.2,29.86,WNW,295,0.0,2.0,94,0.00,,---,0.00,VWS V14.01,2013-05-12 09:03:00,
2013-05-12 05:08:00,61.9,60.2,29.86,NW,309,1.0,2.0,94,0.00,,---,0.00,VWS V14.01,2013-05-12 09:08:00,
2013-05-12 05:13:00,61.8,60.1,29.86,NW,304,1.0,2.0,94,0.00,,---,0.00,VWS V14.01,2013-05-12 09:13:00,
2013-05-12 05:18:00,61.7,60.0,29.86,NW,309,0.0,2.0,94,0.00,,---,0.00,VWS V14.01,2013-05-12 09:18:00,
2013-05-12 05:23:00,61.6,59.9,29.87,WNW,289,0.0,3.0,94,0.00,,---,0.00,VWS V14.01,2013-05-12 09:23:00,
2013-05-12 05:28:00,61.5,59.8,29.87,WNW,301,1.0,4.0,94,0.00,,---,0.00,VWS V14.01,2013-05-12 09:28:00,
2013-05-12 05:33:00,61.5,59.8,29.87,NW,326,0.0,4.0,94,0.00,,---,0.00,VWS V14.01,2013-05-12 09:33:00,
2013-05-12 05:38:00,61.4,60.0,29.87,NW,326,4.0,5.0,95,0.00,,---,0.00,VWS V14.01,2013-05-12 09:38:00,
2013-05-12 05:43:00,61.3,59.9,29.87,North,354,5.0,6.0,95,0.00,,---,0.00,VWS V14.01,2013-05-12 09:43:00,
2013-05-12 05:48:00,61.3,59.6,29.87,WNW,298,7.0,7.0,94,0.00,,---,0.00,VWS V14.01,2013-05-12 09:48:00,
2013-05-12 05:53:00,61.2,59.5,29.87,NNW,330,1.0,5.0,94,0.00,,---,0.00,VWS V14.01,2013-05-12 09:53:00,
2013-05-12 05:58:00,61.1,59.4,29.88,North,10,0.0,4.0,94,0.00,,---,0.00,VWS V14.01,2013-05-12 09:58:00,
2013-05-12 06:03:00,61.0,59.3,29.88,NNE,27,1.0,4.0,94,0.00,,---,0.00,VWS V14.01,2013-05-12 10:03:00,
2013-05-12 06:08:00,60.9,59.2,29.88,NNW,338,1.0,4.0,94,0.00,,---,0.00,VWS V14.01,2013-05-12 10:08:00,
2013-05-12 06:13:00,60.8,59.1,29.88,NW,325,1.0,2.0,94,0.00,,---,0.00,VWS V14.01,2013-05-12 10:13:00,
2013-05-12 06:18:00,60.6,58.9,29.88,NNW,327,2.0,3.0,94,0.00,,---,0.00,VWS V14.01,2013-05-12 10:18:00,
2013-05-12 06:23:00,60.5,58.8,29.89,NW,318,0.0,3.0,94,0.00,,---,0.00,VWS V14.01,2013-05-12 10:23:00,
2013-05-12 06:28:00,60.4,58.7,29.89,NW,305,0.0,5.0,94,0.00,,---,0.00,VWS V14.01,2013-05-12 10:28:00,
2013-05-12 06:33:00,60.3,58.3,29.89,NW,319,1.0,3.0,93,0.00,,---,0.00,VWS V14.01,2013-05-12 10:33:00,
2013-05-12 06:38:00,60.1,58.1,29.89,NW,326,1.0,3.0,93,0.00,,---,0.00,VWS V14.01,2013-05-12 10:38:00,
2013-05-12 06:43:00,60.0,58.0,29.89,NW,322,0.0,1.0,93,0.00,,---,0.00,VWS V14.01,2013-05-12 10:43:00,
2013-05-12 06:48:00,59.9,57.9,29.90,NNW,331,0.0,2.0,93,0.00,,---,0.00,VWS V14.01,2013-05-12 10:48:00,
2013-05-12 06:54:00,59.8,57.8,29.90,NW,325,0.0,3.0,93,0.00,,---,0.00,VWS V14.01,2013-05-12 10:54:00,
2013-05-12 06:59:00,59.9,57.9,29.90,NW,324,0.0,1.0,93,0.00,,---,0.00,VWS V14.01,2013-05-12 10:59:00,
2013-05-12 07:04:00,59.9,57.6,29.91,NW,314,1.0,2.0,92,0.00,,---,0.00,VWS V14.01,2013-05-12 11:04:00,
2013-05-12 07:09:00,59.9,57.6,29.91,NW,312,0.0,2.0,92,0.00,,---,0.00,VWS V14.01,2013-05-12 11:09:00,
2013-05-12 07:14:00,59.9,57.6,29.91,NW,321,1.0,2.0,92,0.00,,---,0.00,VWS V14.01,2013-05-12 11:14:00,
2013-05-12 07:19:00,59.9,57.6,29.91,NW,326,0.0,3.0,92,0.00,,---,0.00,VWS V14.01,2013-05-12 11:19:00,
2013-05-12 07:24:00,60.0,57.7,29.92,NW,322,1.0,2.0,92,0.00,,---,0.00,VWS V14.01,2013-05-12 11:24:00,
2013-05-12 07:29:00,60.1,57.5,29.92,NW,310,1.0,3.0,91,0.00,,---,0.00,VWS V14.01,2013-05-12 11:29:00,
2013-05-12 07:34:00,60.3,57.0,29.92,NW,305,4.0,6.0,89,0.00,,---,0.00,VWS V14.01,2013-05-12 11:34:00,
2013-05-12 07:39:00,60.7,57.4,29.92,NW,321,3.0,5.0,89,0.00,,---,0.00,VWS V14.01,2013-05-12 11:39:00,
2013-05-12 07:44:00,60.9,57.0,29.93,WNW,302,0.0,5.0,87,0.00,,---,0.00,VWS V14.01,2013-05-12 11:44:00,
2013-05-12 07:49:00,60.9,56.7,29.92,NNW,328,2.0,3.0,86,0.00,,---,0.00,VWS V14.01,2013-05-12 11:49:00,
2013-05-12 07:54:00,61.1,56.6,29.93,WNW,295,3.0,6.0,85,0.00,,---,0.00,VWS V14.01,2013-05-12 11:54:00,
2013-05-12 07:59:00,61.4,56.9,29.93,NE,36,0.0,4.0,85,0.00,,---,0.00,VWS V14.01,2013-05-12 11:59:00,
2013-05-12 08:04:00,61.7,56.2,29.93,NW,307,0.0,6.0,82,0.00,,---,0.00,VWS V14.01,2013-05-12 12:04:00,
2013-05-12 08:09:00,61.9,56.3,29.93,NNW,333,3.0,3.0,82,0.00,,---,0.00,VWS V14.01,2013-05-12 12:09:00,
2013-05-12 08:14:00,62.0,56.1,29.93,NNW,332,2.0,4.0,81,0.00,,---,0.00,VWS V14.01,2013-05-12 12:14:00,
2013-05-12 08:19:00,62.2,56.0,29.93,NW,309,0.0,4.0,80,0.00,,---,0.00,VWS V14.01,2013-05-12 12:19:00,
2013-05-12 08:24:00,62.5,55.9,29.93,NW,311,1.0,6.0,79,0.00,,---,0.00,VWS V14.01,2013-05-12 12:24:00,
2013-05-12 08:29:00,62.7,55.0,29.93,North,352,3.0,8.0,76,0.00,,---,0.00,VWS V14.01,2013-05-12 12:29:00,
2013-05-12 08:34:00,62.9,54.5,29.93,NNW,330,1.0,4.0,74,0.00,,---,0.00,VWS V14.01,2013-05-12 12:34:00,
2013-05-12 08:39:00,63.2,55.5,29.93,NNW,347,1.0,3.0,76,0.00,,---,0.00,VWS V14.01,2013-05-12 12:39:00,
2013-05-12 08:44:00,63.7,55.3,29.93,NW,309,0.0,6.0,74,0.00,,---,0.00,VWS V14.01,2013-05-12 12:44:00,
2013-05-12 08:49:00,63.8,55.0,29.93,NW,322,1.0,6.0,73,0.00,,---,0.00,VWS V14.01,2013-05-12 12:49:00,
2013-05-12 08:54:00,64.0,55.2,29.93,WNW,287,0.0,5.0,73,0.00,,---,0.00,VWS V14.01,2013-05-12 12:54:00,
2013-05-12 08:59:00,64.5,55.3,29.94,NNE,22,0.0,2.0,72,0.00,,---,0.00,VWS V14.01,2013-05-12 12:59:00,
2013-05-12 09:04:00,64.9,54.9,29.94,WNW,296,1.0,5.0,70,0.00,,---,0.00,VWS V14.01,2013-05-12 13:04:00,
2013-05-12 09:09:00,64.8,54.4,29.94,NW,316,2.0,5.0,69,0.00,,---,0.00,VWS V14.01,2013-05-12 13:09:00,
2013-05-12 09:14:00,65.1,55.1,29.94,NNW,327,5.0,5.0,70,0.00,,---,0.00,VWS V14.01,2013-05-12 13:14:00,
2013-05-12 09:19:00,65.1,55.1,29.94,NW,314,1.0,6.0,70,0.00,,---,0.00,VWS V14.01,2013-05-12 13:19:00,
2013-05-12 09:24:00,65.4,54.2,29.94,WNW,291,2.0,5.0,67,0.00,,---,0.00,VWS V14.01,2013-05-12 13:24:00,
2013-05-12 09:29:00,65.4,52.9,29.94,North,356,5.0,8.0,64,0.00,,---,0.00,VWS V14.01,2013-05-12 13:29:00,
2013-05-12 09:34:00,65.6,53.5,29.94,WNW,296,2.0,5.0,65,0.00,,---,0.00,VWS V14.01,2013-05-12 13:34:00,
2013-05-12 09:39:00,65.8,53.3,29.94,West,281,1.0,8.0,64,0.00,,---,0.00,VWS V14.01,2013-05-12 13:39:00,
2013-05-12 09:44:00,65.9,52.5,29.94,NE,37,4.0,10.0,62,0.00,,---,0.00,VWS V14.01,2013-05-12 13:44:00,
2013-05-12 09:49:00,65.7,51.9,29.94,NNW,328,3.0,8.0,61,0.00,,---,0.00,VWS V14.01,2013-05-12 13:49:00,
2013-05-12 09:54:00,65.7,54.0,29.94,WNW,291,0.0,5.0,66,0.00,,---,0.00,VWS V14.01,2013-05-12 13:54:00,
2013-05-12 09:59:00,66.4,53.0,29.94,WNW,300,6.0,11.0,62,0.00,,---,0.00,VWS V14.01,2013-05-12 13:59:00,
2013-05-12 10:04:00,66.1,52.3,29.94,NNW,345,3.0,7.0,61,0.00,,---,0.00,VWS V14.01,2013-05-12 14:04:00,
2013-05-12 10:09:00,66.0,52.2,29.94,WNW,293,8.0,8.0,61,0.00,,---,0.00,VWS V14.01,2013-05-12 14:09:00,
2013-05-12 10:14:00,66.2,52.4,29.94,WNW,286,1.0,4.0,61,0.00,,---,0.00,VWS V14.01,2013-05-12 14:14:00,
2013-05-12 10:20:00,66.9,53.9,29.94,NNW,328,3.0,6.0,63,0.00,,---,0.00,VWS V14.01,2013-05-12 14:20:00,
2013-05-12 10:25:00,67.0,51.3,29.94,WNW,290,7.0,8.0,57,0.00,,---,0.00,VWS V14.01,2013-05-12 14:25:00,
2013-05-12 10:30:00,67.0,52.2,29.94,WSW,250,3.0,9.0,59,0.00,,---,0.00,VWS V14.01,2013-05-12 14:30:00,
2013-05-12 10:35:00,67.3,52.0,29.93,NE,56,6.0,8.0,58,0.00,,---,0.00,VWS V14.01,2013-05-12 14:35:00,
2013-05-12 10:40:00,67.6,51.8,29.93,NNW,340,3.0,5.0,57,0.00,,---,0.00,VWS V14.01,2013-05-12 14:40:00,
2013-05-12 10:45:00,67.7,51.0,29.94,NW,321,0.0,9.0,55,0.00,,---,0.00,VWS V14.01,2013-05-12 14:45:00,
2013-05-12 10:50:00,67.8,50.1,29.94,NE,44,8.0,10.0,53,0.00,,---,0.00,VWS V14.01,2013-05-12 14:50:00,
2013-05-12 10:55:00,67.8,50.6,29.94,WNW,295,0.0,12.0,54,0.00,,---,0.00,VWS V14.01,2013-05-12 14:55:00,
2013-05-12 11:00:00,68.0,51.7,29.93,WNW,300,1.0,8.0,56,0.00,,---,0.00,VWS V14.01,2013-05-12 15:00:00,
2013-05-12 11:05:00,68.5,52.7,29.94,NE,34,0.0,7.0,57,0.00,,---,0.00,VWS V14.01,2013-05-12 15:05:00,
2013-05-12 11:10:00,68.8,52.5,29.94,WNW,295,8.0,9.0,56,0.00,,---,0.00,VWS V14.01,2013-05-12 15:10:00,
2013-05-12 11:15:00,68.6,51.8,29.94,WSW,250,2.0,9.0,55,0.00,,---,0.00,VWS V14.01,2013-05-12 15:15:00,
2013-05-12 11:20:00,69.0,53.6,29.93,NNW,333,1.0,8.0,58,0.00,,---,0.00,VWS V14.01,2013-05-12 15:20:00,
2013-05-12 11:25:00,69.3,53.9,29.93,WNW,300,6.0,7.0,58,0.00,,---,0.00,VWS V14.01,2013-05-12 15:25:00,
2013-05-12 11:30:00,69.2,52.4,29.93,WSW,247,2.0,7.0,55,0.00,,---,0.00,VWS V14.01,2013-05-12 15:30:00,
2013-05-12 11:35:00,69.8,51.4,29.94,WSW,252,6.0,11.0,52,0.00,,---,0.00,VWS V14.01,2013-05-12 15:35:00,
2013-05-12 11:40:00,69.8,52.4,29.94,West,263,2.0,11.0,54,0.00,,---,0.00,VWS V14.01,2013-05-12 15:40:00,
2013-05-12 11:45:00,69.4,50.0,29.94,West,271,2.0,10.0,50,0.00,,---,0.00,VWS V14.01,2013-05-12 15:45:00,
2013-05-12 11:50:00,69.4,51.0,29.94,WSW,255,6.0,9.0,52,0.00,,---,0.00,VWS V14.01,2013-05-12 15:50:00,
2013-05-12 11:55:00,69.3,50.9,29.94,West,263,2.0,9.0,52,0.00,,---,0.00,VWS V14.01,2013-05-12 15:55:00,
2013-05-12 12:00:00,69.5,52.6,29.94,West,273,5.0,7.0,55,0.00,,---,0.00,VWS V14.01,2013-05-12 16:00:00,
2013-05-12 12:05:00,69.7,53.3,29.94,WNW,285,2.0,11.0,56,0.00,,---,0.00,VWS V14.01,2013-05-12 16:05:00,
2013-05-12 12:10:00,70.0,52.6,29.94,West,278,3.0,6.0,54,0.00,,---,0.00,VWS V14.01,2013-05-12 16:10:00,
2013-05-12 12:15:00,70.3,51.3,29.94,SSE,165,1.0,9.0,51,0.00,,---,0.00,VWS V14.01,2013-05-12 16:15:00,
2013-05-12 12:20:00,70.2,50.7,29.94,NNW,333,6.0,9.0,50,0.00,,---,0.00,VWS V14.01,2013-05-12 16:20:00,
2013-05-12 12:25:00,70.1,51.2,29.94,West,274,10.0,12.0,51,0.00,,---,0.00,VWS V14.01,2013-05-12 16:25:00,
2013-05-12 12:30:00,70.0,49.4,29.94,WNW,301,4.0,11.0,48,0.00,,---,0.00,VWS V14.01,2013-05-12 16:30:00,
2013-05-12 12:35:00,70.3,49.1,29.94,WSW,256,3.0,12.0,47,0.00,,---,0.00,VWS V14.01,2013-05-12 16:35:00,
2013-05-12 12:40:00,70.7,49.5,29.94,WSW,239,3.0,11.0,47,0.00,,---,0.00,VWS V14.01,2013-05-12 16:40:00,
2013-05-12 12:45:00,70.4,48.7,29.94,SW,229,1.0,14.0,46,0.00,,---,0.00,VWS V14.01,2013-05-12 16:45:00,
2013-05-12 12:50:00,70.5,48.2,29.94,WNW,291,6.0,12.0,45,0.00,,---,0.00,VWS V14.01,2013-05-12 16:50:00,
2013-05-12 12:55:00,71.3,49.5,29.94,WNW,302,10.0,12.0,46,0.00,,---,0.00,VWS V14.01,2013-05-12 16:55:00,
2013-05-12 13:01:00,71.4,47.8,29.93,NW,308,2.0,11.0,43,0.00,,---,0.00,VWS V14.01,2013-05-12 17:01:00,
2013-05-12 13:06:00,71.3,43.7,29.94,NW,314,9.0,22.0,37,0.00,,---,0.00,VWS V14.01,2013-05-12 17:06:00,
2013-05-12 13:11:00,71.2,43.6,29.94,WNW,292,9.0,16.0,37,0.00,,---,0.00,VWS V14.01,2013-05-12 17:11:00,
2013-05-12 13:16:00,71.1,42.8,29.94,West,266,9.0,22.0,36,0.00,,---,0.00,VWS V14.01,2013-05-12 17:16:00,
2013-05-12 13:21:00,71.1,41.3,29.94,NW,312,4.0,17.0,34,0.00,,---,0.00,VWS V14.01,2013-05-12 17:21:00,
2013-05-12 13:26:00,71.1,42.1,29.93,NNW,341,1.0,14.0,35,0.00,,---,0.00,VWS V14.01,2013-05-12 17:26:00,
2013-05-12 13:31:00,71.5,42.4,29.93,NNW,330,3.0,12.0,35,0.00,,---,0.00,VWS V14.01,2013-05-12 17:31:00,
2013-05-12 13:36:00,72.1,43.7,29.93,West,278,14.0,14.0,36,0.00,,---,0.00,VWS V14.01,2013-05-12 17:36:00,
2013-05-12 13:41:00,72.4,44.0,29.93,NNW,330,5.0,11.0,36,0.00,,---,0.00,VWS V14.01,2013-05-12 17:41:00,
2013-05-12 13:46:00,72.2,42.3,29.93,North,354,7.0,13.0,34,0.00,,---,0.00,VWS V14.01,2013-05-12 17:46:00,
2013-05-12 13:51:00,72.1,43.0,29.93,West,269,3.0,18.0,35,0.00,,---,0.00,VWS V14.01,2013-05-12 17:51:00,
2013-05-12 13:56:00,72.1,41.4,29.93,West,278,11.0,17.0,33,0.00,,---,0.00,VWS V14.01,2013-05-12 17:56:00,
2013-05-12 14:01:00,72.0,42.1,29.93,West,267,7.0,15.0,34,0.00,,---,0.00,VWS V14.01,2013-05-12 18:01:00,
2013-05-12 14:06:00,72.7,40.3,29.93,NNE,26,6.0,9.0,31,0.00,,---,0.00,VWS V14.01,2013-05-12 18:06:00,
2013-05-12 14:11:00,72.6,40.3,29.93,NW,318,8.0,14.0,31,0.00,,---,0.00,VWS V14.01,2013-05-12 18:11:00,
2013-05-12 14:16:00,72.7,42.7,29.93,WSW,255,15.0,15.0,34,0.00,,---,0.00,VWS V14.01,2013-05-12 18:16:00,
2013-05-12 14:21:00,72.8,42.8,29.93,NW,309,6.0,15.0,34,0.00,,---,0.00,VWS V14.01,2013-05-12 18:21:00,
2013-05-12 14:26:00,73.2,42.4,29.93,WNW,290,11.0,19.0,33,0.00,,---,0.00,VWS V14.01,2013-05-12 18:26:00,
2013-05-12 14:31:00,73.3,42.5,29.93,West,274,5.0,8.0,33,0.00,,---,0.00,VWS V14.01,2013-05-12 18:31:00,
2013-05-12 14:36:00,73.1,40.7,29.93,West,269,8.0,8.0,31,0.00,,---,0.00,VWS V14.01,2013-05-12 18:36:00,
2013-05-12 14:41:00,72.9,39.7,29.93,NW,312,9.0,12.0,30,0.00,,---,0.00,VWS V14.01,2013-05-12 18:41:00,
2013-05-12 14:46:00,72.7,42.0,29.93,NNW,338,4.0,5.0,33,0.00,,---,0.00,VWS V14.01,2013-05-12 18:46:00,
2013-05-12 14:51:00,73.1,42.3,29.93,West,276,5.0,5.0,33,0.00,,---,0.00,VWS V14.01,2013-05-12 18:51:00,
2013-05-12 14:56:00,73.3,42.5,29.92,WNW,295,6.0,6.0,33,0.00,,---,0.00,VWS V14.01,2013-05-12 18:56:00,
2013-05-12 15:01:00,73.1,42.3,29.92,WNW,294,10.0,10.0,33,0.00,,---,0.00,VWS V14.01,2013-05-12 19:01:00,
2013-05-12 15:06:00,73.0,41.4,29.92,NNW,336,9.0,11.0,32,0.00,,---,0.00,VWS V14.01,2013-05-12 19:06:00,
2013-05-12 15:11:00,72.9,41.3,29.92,NNW,329,3.0,4.0,32,0.00,,---,0.00,VWS V14.01,2013-05-12 19:11:00,
2013-05-12 15:16:00,72.9,42.9,29.92,WNW,284,2.0,7.0,34,0.00,,---,0.00,VWS V14.01,2013-05-12 19:16:00,
2013-05-12 15:21:00,73.2,43.9,29.91,SW,218,5.0,7.0,35,0.00,,---,0.00,VWS V14.01,2013-05-12 19:21:00,
2013-05-12 15:26:00,73.0,43.8,29.91,NW,312,0.0,1.0,35,0.00,,---,0.00,VWS V14.01,2013-05-12 19:26:00,
2013-05-12 15:31:00,72.6,43.4,29.91,NW,313,2.0,4.0,35,0.00,,---,0.00,VWS V14.01,2013-05-12 19:31:00,
2013-05-12 15:36:00,72.8,44.3,29.91,WNW,283,0.0,0.0,36,0.00,,---,0.00,VWS V14.01,2013-05-12 19:36:00,
2013-05-12 15:41:00,73.2,42.4,29.91,WNW,298,4.0,7.0,33,0.00,,---,0.00,VWS V14.01,2013-05-12 19:41:00,
2013-05-12 15:46:00,73.3,43.3,29.90,East,96,1.0,2.0,34,0.00,,---,0.00,VWS V14.01,2013-05-12 19:46:00,
2013-05-12 15:51:00,73.1,44.6,29.90,NW,326,6.0,6.0,36,0.00,,---,0.00,VWS V14.01,2013-05-12 19:51:00,
2013-05-12 15:56:00,72.7,44.2,29.91,WNW,302,4.0,9.0,36,0.00,,---,0.00,VWS V14.01,2013-05-12 19:56:00,
2013-05-12 16:01:00,72.1,43.7,29.90,West,281,1.0,3.0,36,0.00,,---,0.00,VWS V14.01,2013-05-12 20:01:00,
2013-05-12 16:06:00,72.1,45.1,29.90,North,350,0.0,1.0,38,0.00,,---,0.00,VWS V14.01,2013-05-12 20:06:00,
2013-05-12 16:11:00,72.5,44.8,29.90,NW,312,4.0,6.0,37,0.00,,---,0.00,VWS V14.01,2013-05-12 20:11:00,
2013-05-12 16:16:00,73.0,43.0,29.90,NNW,338,0.0,3.0,34,0.00,,---,0.00,VWS V14.01,2013-05-12 20:16:00,
2013-05-12 16:21:00,73.7,46.5,29.91,West,263,5.0,6.0,38,0.00,,---,0.00,VWS V14.01,2013-05-12 20:21:00,
2013-05-12 16:26:00,73.5,46.4,29.91,WSW,245,0.0,6.0,38,0.00,,---,0.00,VWS V14.01,2013-05-12 20:26:00,
2013-05-12 16:31:00,73.5,44.9,29.91,WNW,288,1.0,6.0,36,0.00,,---,0.00,VWS V14.01,2013-05-12 20:31:00,
2013-05-12 16:36:00,73.6,43.5,29.91,WNW,293,7.0,7.0,34,0.00,,---,0.00,VWS V14.01,2013-05-12 20:36:00,
2013-05-12 16:41:00,73.0,44.5,29.91,North,4,6.0,7.0,36,0.00,,---,0.00,VWS V14.01,2013-05-12 20:41:00,
2013-05-12 16:46:00,72.6,44.9,29.91,North,358,10.0,10.0,37,0.00,,---,0.00,VWS V14.01,2013-05-12 20:46:00,
2013-05-12 16:51:00,72.4,42.5,29.91,North,350,3.0,8.0,34,0.00,,---,0.00,VWS V14.01,2013-05-12 20:51:00,
2013-05-12 16:57:00,72.7,44.2,29.91,NW,321,3.0,6.0,36,0.00,,---,0.00,VWS V14.01,2013-05-12 20:57:00,
2013-05-12 17:02:00,72.7,42.7,29.91,NW,321,4.0,4.0,34,0.00,,---,0.00,VWS V14.01,2013-05-12 21:02:00,
2013-05-12 17:07:00,72.3,43.1,29.91,NW,321,2.0,4.0,35,0.00,,---,0.00,VWS V14.01,2013-05-12 21:07:00,
2013-05-12 17:12:00,72.2,43.8,29.91,NNW,331,2.0,6.0,36,0.00,,---,0.00,VWS V14.01,2013-05-12 21:12:00,
2013-05-12 17:17:00,72.1,45.1,29.91,NNE,27,0.0,1.0,38,0.00,,---,0.00,VWS V14.01,2013-05-12 21:17:00,
2013-05-12 17:22:00,71.9,44.9,29.91,NNW,340,0.0,0.0,38,0.00,,---,0.00,VWS V14.01,2013-05-12 21:22:00,
2013-05-12 17:27:00,71.8,44.8,29.92,North,1,0.0,0.0,38,0.00,,---,0.00,VWS V14.01,2013-05-12 21:27:00,
2013-05-12 17:32:00,71.7,46.1,29.92,West,278,1.0,1.0,40,0.00,,---,0.00,VWS V14.01,2013-05-12 21:32:00,
2013-05-12 17:37:00,71.5,43.9,29.92,NNW,340,1.0,6.0,37,0.00,,---,0.00,VWS V14.01,2013-05-12 21:37:00,
2013-05-12 17:42:00,71.3,43.0,29.92,NNW,339,2.0,4.0,36,0.00,,---,0.00,VWS V14.01,2013-05-12 21:42:00,
2013-05-12 17:47:00,71.6,43.3,29.92,North,4,5.0,9.0,36,0.00,,---,0.00,VWS V14.01,2013-05-12 21:47:00,
2013-05-12 17:52:00,72.5,44.1,29.92,NNW,331,0.0,3.0,36,0.00,,---,0.00,VWS V14.01,2013-05-12 21:52:00,
2013-05-12 17:57:00,72.6,42.7,29.93,NNW,338,2.0,8.0,34,0.00,,---,0.00,VWS V14.01,2013-05-12 21:57:00,
2013-05-12 18:02:00,72.0,42.1,29.93,NW,326,4.0,4.0,34,0.00,,---,0.00,VWS V14.01,2013-05-12 22:02:00,
2013-05-12 18:07:00,71.5,42.4,29.93,North,358,2.0,6.0,35,0.00,,---,0.00,VWS V14.01,2013-05-12 22:07:00,
2013-05-12 18:12:00,71.2,42.2,29.93,NNW,335,1.0,4.0,35,0.00,,---,0.00,VWS V14.01,2013-05-12 22:12:00,
2013-05-12 18:17:00,71.3,43.7,29.93,NNW,342,0.0,3.0,37,0.00,,---,0.00,VWS V14.01,2013-05-12 22:17:00,
2013-05-12 18:22:00,71.6,41.8,29.93,NW,326,4.0,6.0,34,0.00,,---,0.00,VWS V14.01,2013-05-12 22:22:00,
2013-05-12 18:27:00,71.4,42.3,29.93,NW,326,0.0,2.0,35,0.00,,---,0.00,VWS V14.01,2013-05-12 22:27:00,
2013-05-12 18:32:00,71.2,41.4,29.93,NNW,336,0.0,4.0,34,0.00,,---,0.00,VWS V14.01,2013-05-12 22:32:00,
2013-05-12 18:37:00,71.0,41.2,29.93,NW,321,1.0,2.0,34,0.00,,---,0.00,VWS V14.01,2013-05-12 22:37:00,
2013-05-12 18:42:00,70.6,40.9,29.93,NNW,340,4.0,4.0,34,0.00,,---,0.00,VWS V14.01,2013-05-12 22:42:00,
2013-05-12 18:47:00,70.4,41.5,29.93,NW,317,0.0,1.0,35,0.00,,---,0.00,VWS V14.01,2013-05-12 22:47:00,
2013-05-12 18:52:00,70.1,41.9,29.93,NW,326,0.0,1.0,36,0.00,,---,0.00,VWS V14.01,2013-05-12 22:52:00,
2013-05-12 18:57:00,69.9,41.0,29.94,NNW,333,0.0,4.0,35,0.00,,---,0.00,VWS V14.01,2013-05-12 22:57:00,
2013-05-12 19:02:00,69.6,40.8,29.94,NE,44,1.0,3.0,35,0.00,,---,0.00,VWS V14.01,2013-05-12 23:02:00,
2013-05-12 19:07:00,69.5,39.9,29.94,NNW,345,1.0,3.0,34,0.00,,---,0.00,VWS V14.01,2013-05-12 23:07:00,
2013-05-12 19:12:00,69.6,40.8,29.94,NNW,329,1.0,3.0,35,0.00,,---,0.00,VWS V14.01,2013-05-12 23:12:00,
2013-05-12 19:17:00,69.7,40.8,29.94,NW,317,0.0,2.0,35,0.00,,---,0.00,VWS V14.01,2013-05-12 23:17:00,
2013-05-12 19:22:00,69.5,41.4,29.94,NW,315,1.0,2.0,36,0.00,,---,0.00,VWS V14.01,2013-05-12 23:22:00,
2013-05-12 19:27:00,69.2,42.5,29.94,NNW,333,0.0,2.0,38,0.00,,---,0.00,VWS V14.01,2013-05-12 23:27:00,
2013-05-12 19:32:00,68.9,39.4,29.94,North,349,4.0,7.0,34,0.00,,---,0.00,VWS V14.01,2013-05-12 23:32:00,
2013-05-12 19:37:00,68.6,41.3,29.95,North,5,9.0,9.0,37,0.00,,---,0.00,VWS V14.01,2013-05-12 23:37:00,
2013-05-12 19:42:00,68.2,43.0,29.95,NNW,333,4.0,9.0,40,0.00,,---,0.00,VWS V14.01,2013-05-12 23:42:00,
2013-05-12 19:47:00,68.0,43.5,29.95,NNE,20,3.0,13.0,41,0.00,,---,0.00,VWS V14.01,2013-05-12 23:47:00,
2013-05-12 19:52:00,67.8,42.6,29.96,NNW,347,2.0,7.0,40,0.00,,---,0.00,VWS V14.01,2013-05-12 23:52:00,
2013-05-12 19:57:00,67.6,43.1,29.96,North,1,1.0,7.0,41,0.00,,---,0.00,VWS V14.01,2013-05-12 23:57:00,
2013-05-12 20:03:00,67.4,42.9,29.96,North,358,4.0,4.0,41,0.00,,---,0.00,VWS V14.01,2013-05-13 00:03:00,
2013-05-12 20:08:00,67.2,42.7,29.96,NW,318,4.0,8.0,41,0.00,,---,0.00,VWS V14.01,2013-05-13 00:08:00,
2013-05-12 20:13:00,66.9,42.5,29.96,NNW,329,3.0,4.0,41,0.00,,---,0.00,VWS V14.01,2013-05-13 00:13:00,
2013-05-12 20:18:00,66.6,41.5,29.96,NNW,335,1.0,5.0,40,0.00,,---,0.00,VWS V14.01,2013-05-13 00:18:00,
2013-05-12 20:23:00,66.2,41.8,29.97,NNW,337,0.0,1.0,41,0.00,,---,0.00,VWS V14.01,2013-05-13 00:23:00,
2013-05-12 20:28:00,65.8,42.1,29.97,NW,326,2.0,4.0,42,0.00,,---,0.00,VWS V14.01,2013-05-13 00:28:00,
2013-05-12 20:33:00,65.4,41.7,29.97,NNW,328,0.0,2.0,42,0.00,,---,0.00,VWS V14.01,2013-05-13 00:33:00,
2013-05-12 20:38:00,65.0,42.0,29.97,NNW,335,3.0,3.0,43,0.00,,---,0.00,VWS V14.01,2013-05-13 00:38:00,
2013-05-12 20:43:00,64.7,41.1,29.98,North,8,5.0,6.0,42,0.00,,---,0.00,VWS V14.01,2013-05-13 00:43:00,
2013-05-12 20:48:00,64.6,41.0,29.97,NNW,330,2.0,6.0,42,0.00,,---,0.00,VWS V14.01,2013-05-13 00:48:00,
2013-05-12 20:53:00,64.3,41.3,29.98,NW,314,2.0,4.0,43,0.00,,---,0.00,VWS V14.01,2013-05-13 00:53:00,
2013-05-12 20:58:00,64.0,41.1,29.98,NNW,335,1.0,7.0,43,0.00,,---,0.00,VWS V14.01,2013-05-13 00:58:00,
2013-05-12 21:03:00,63.7,41.4,29.98,NNW,341,4.0,4.0,44,0.00,,---,0.00,VWS V14.01,2013-05-13 01:03:00,
2013-05-12 21:08:00,63.4,41.1,29.99,NNW,340,1.0,4.0,44,0.00,,---,0.00,VWS V14.01,2013-05-13 01:08:00,
2013-05-12 21:13:00,63.1,41.4,29.99,NNW,329,0.0,3.0,45,0.00,,---,0.00,VWS V14.01,2013-05-13 01:13:00,
2013-05-12 21:18:00,62.8,41.7,30.00,NNE,18,4.0,4.0,46,0.00,,---,0.00,VWS V14.01,2013-05-13 01:18:00,
2013-05-12 21:23:00,62.5,41.5,30.00,North,352,3.0,5.0,46,0.00,,---,0.00,VWS V14.01,2013-05-13 01:23:00,
2013-05-12 21:28:00,62.4,40.8,30.00,NNW,339,2.0,4.0,45,0.00,,---,0.00,VWS V14.01,2013-05-13 01:28:00,
2013-05-12 21:33:00,62.2,41.2,30.00,NNW,332,5.0,6.0,46,0.00,,---,0.00,VWS V14.01,2013-05-13 01:33:00,
2013-05-12 21:38:00,62.0,40.4,30.00,NNW,335,0.0,2.0,45,0.00,,---,0.00,VWS V14.01,2013-05-13 01:38:00,
2013-05-12 21:43:00,61.7,40.7,30.01,NNE,20,2.0,3.0,46,0.00,,---,0.00,VWS V14.01,2013-05-13 01:43:00,
2013-05-12 21:48:00,61.4,41.0,30.01,NNE,32,0.0,2.0,47,0.00,,---,0.00,VWS V14.01,2013-05-13 01:48:00,
2013-05-12 21:53:00,60.9,41.6,30.02,NNE,18,0.0,2.0,49,0.00,,---,0.00,VWS V14.01,2013-05-13 01:53:00,
2013-05-12 21:58:00,60.5,40.7,30.02,NNW,338,2.0,3.0,48,0.00,,---,0.00,VWS V14.01,2013-05-13 01:58:00,
2013-05-12 22:03:00,60.5,40.2,30.02,NNW,339,1.0,8.0,47,0.00,,---,0.00,VWS V14.01,2013-05-13 02:03:00,
2013-05-12 22:08:00,60.5,39.6,30.02,NW,326,2.0,4.0,46,0.00,,---,0.00,VWS V14.01,2013-05-13 02:08:00,
2013-05-12 22:14:00,60.5,38.5,30.02,NW,314,1.0,6.0,44,0.00,,---,0.00,VWS V14.01,2013-05-13 02:14:00,
2013-05-12 22:18:00,60.5,39.1,30.02,NNW,340,4.0,6.0,45,0.00,,---,0.00,VWS V14.01,2013-05-13 02:18:00,
2013-05-12 22:23:00,60.3,38.9,30.02,NNE,20,0.0,4.0,45,0.00,,---,0.00,VWS V14.01,2013-05-13 02:23:00,
2013-05-12 22:28:00,60.0,39.2,30.02,NNW,344,0.0,1.0,46,0.00,,---,0.00,VWS V14.01,2013-05-13 02:28:00,
2013-05-12 22:34:00,59.7,39.5,30.03,NNE,18,0.0,3.0,47,0.00,,---,0.00,VWS V14.01,2013-05-13 02:34:00,
2013-05-12 22:39:00,59.5,39.3,30.03,NW,324,1.0,5.0,47,0.00,,---,0.00,VWS V14.01,2013-05-13 02:39:00,
2013-05-12 22:44:00,59.3,38.5,30.03,NNE,20,0.0,4.0,46,0.00,,---,0.00,VWS V14.01,2013-05-13 02:44:00,
2013-05-12 22:49:00,59.2,37.9,30.03,NNW,342,1.0,6.0,45,0.00,,---,0.00,VWS V14.01,2013-05-13 02:49:00,
2013-05-12 22:54:00,59.1,38.4,30.03,North,1,2.0,6.0,46,0.00,,---,0.00,VWS V14.01,2013-05-13 02:54:00,
2013-05-12 22:59:00,59.0,39.4,30.03,North,9,1.0,5.0,48,0.00,,---,0.00,VWS V14.01,2013-05-13 02:59:00,
2013-05-12 23:04:00,58.5,38.9,30.04,North,6,0.0,3.0,48,0.00,,---,0.00,VWS V14.01,2013-05-13 03:04:00,
2013-05-12 23:09:00,58.0,39.0,30.04,NNW,330,1.0,1.0,49,0.00,,---,0.00,VWS V14.01,2013-05-13 03:09:00,
2013-05-12 23:14:00,57.8,38.3,30.04,NNW,330,0.0,5.0,48,0.00,,---,0.00,VWS V14.01,2013-05-13 03:14:00,
2013-05-12 23:19:00,57.8,37.7,30.04,NNW,335,2.0,5.0,47,0.00,,---,0.00,VWS V14.01,2013-05-13 03:19:00,
2013-05-12 23:24:00,57.7,38.2,30.04,NNW,340,3.0,7.0,48,0.00,,---,0.00,VWS V14.01,2013-05-13 03:24:00,
2013-05-12 23:29:00,57.4,39.9,30.04,NNW,347,0.0,2.0,52,0.00,,---,0.00,VWS V14.01,2013-05-13 03:29:00,
2013-05-12 23:34:00,57.0,38.0,30.05,NW,314,1.0,4.0,49,0.00,,---,0.00,VWS V14.01,2013-05-13 03:34:00,
2013-05-12 23:39:00,57.0,38.0,30.05,NNW,340,2.0,5.0,49,0.00,,---,0.00,VWS V14.01,2013-05-13 03:39:00,
2013-05-12 23:44:00,56.8,37.3,30.05,NW,309,2.0,3.0,48,0.00,,---,0.00,VWS V14.01,2013-05-13 03:44:00,
2013-05-12 23:49:00,56.8,36.8,30.05,NNW,333,1.0,4.0,47,0.00,,---,0.00,VWS V14.01,2013-05-13 03:49:00,
2013-05-12 23:54:00,56.7,36.7,30.05,NNW,330,2.0,3.0,47,0.00,,---,0.00,VWS V14.01,2013-05-13 03:54:00,
2013-05-12 23:59:00,56.5,37.1,30.05,North,1,2.0,4.0,48,0.00,,---,0.00,VWS V14.01,2013-05-13 03:59:00,